Location: Stoke Bliss
(52.2667°N, 2.5167°W)
Time: 21:30:52
(UTC+00:00)

Cosmos 1503 Rocket - Pass Details

Date: 03 March 2021
Orbit: 753 x 790 km, 74.0° (Epoch: 15 April)

Event Time Altitude Azimuth Distance (km) Brightness Sun altitude
Rises 18:26:47 0° 336° (NNW) 3,238 7.5 -5.9°
Reaches altitude 10° 18:29:13 10° 340° (NNW) 2,303 6.7 -6.3°
Maximum altitude 18:34:22 58° 60° (ENE) 887 4.1 -7.1°
Drops below altitude 10° 18:39:27 10° 139° (SE) 2,276 6.1 -7.8°
Sets 18:41:50 0° 144° (SE) 3,196 6.9 -8.2°
